User: anonymous   Login
Location: Unspecified
(0.0000°N, 0.0000°E)
Time: 19:39:52
(UTC+00:00)
Language:

ARIANE 5 DEB (SYLDA) - Orbit

View from above orbital plane
View from above orbital plane
View from above satellite
View from above satellite

Ground track
Ground track

The orbit data is extracted from the following two-line orbital elements,

1 26722U 01011D   21262.63792015  .00000002  00000-0  13199-1 0  9994
2 26722   1.5208 205.6219 7069201  16.5375 237.7983  2.22910680167276
Epoch (UTC): 19 September 2021 15:18:36
Eccentricity: 0.7069201
inclination: 1.5208°
perigee height: 877 km
apogee height: 35875 km
right ascension of ascending node: 205.6219°
argument of perigee: 16.5375°
revolutions per day: 2.22910680
mean anomaly at epoch: 237.7983°
orbit number at epoch: 16727

The dashed part of the orbit path shows where the satellite is in the earth's shadow,  

DLR